Regional Weather Roundup
Issued by NWS

Home | Current Version | Previous Version | Text Only | Print | Product List | Glossary Off
Versions: 1 2 3 4 5 6 7 8 9 10 11 12 13 14 15 16 17 18 19 20 21 22 23 24 25 26 27 28 29 30 31 32 33 34 35 36 37 38 39 40 41 42 43 44 45 46 47 48 49 50

000
ASUS45 KCYS 292210
RWRWY

WYOMING REGIONAL WEATHER ROUNDUP
NATIONAL WEATHER SERVICE CHEYENNE WY
400 PM MDT MON JUN 29 2015

NOTE:  "FAIR" INDICATES FEW OR NO CLOUDS BELOW 12,000 FEET
WITH NO SIGNIFICANT WEATHER AND/OR OBSTRUCTIONS TO VISIBILITY.

WYZ001-292300-
YELLOWSTONE NATIONAL PARK

CITY           SKY/WX    TMP DP  RH WIND       PRES   REMARKS
LK YELLOWSTONE   N/A     80  41  24 CALM      30.38F
W YELLOWSTONE  NOT AVBL

$$
WYZ002>013-054>058-071-098>099-292300-
NORTHERN WYOMING

CITY           SKY/WX    TMP DP  RH WIND       PRES   REMARKS
JACKSON        FAIR      88  46  23 W8        30.23F
CODY           FAIR      91  43  18 E6        30.13F
GREYBULL       FAIR      98  34  10 S9        30.05F HX  92
WORLAND        FAIR      95  33  11 W7        30.09F HX  90
SHERIDAN       FAIR      92  49  22 SW3       30.10F
BUFFALO        FAIR      88  44  21 N10       30.19F
GILLETTE       FAIR      89  52  28 N9        30.13F
HULETT         FAIR      86  52  30 CALM      30.14F
NEWCASTLE      FAIR      86  43  22 W5        30.13F

$$
WYZ014>020-022>026-101>103-292300-
CENTRAL WYOMING

CITY           SKY/WX    TMP DP  RH WIND       PRES   REMARKS
BIG PINEY      FAIR      87  39  18 W8        30.32F
PINEDALE       FAIR      86  36  16 N8        30.32F
DUBOIS         FAIR      82  39  21 E10G22    30.32F
LANDER         FAIR      89  45  21 VRB5      30.20F
RIVERTON       FAIR      90  41  18 VRB7      30.20F
CASPER         FAIR      91  39  16 VRB6G17   30.21F
DOUGLAS        FAIR      89  43  20 VRB3      30.19F

$$
WYZ021-027>030-104>119-292300-
SOUTHERN WYOMING

CITY           SKY/WX    TMP DP  RH WIND       PRES   REMARKS
EVANSTON       FAIR      90  39  16 VRB6      30.30F
KEMMERER       FAIR     N/A N/A N/A N3        30.33F
FORT BRIDGER   CLEAR     91  36  14 E5        30.33F
ROCK SPRINGS   FAIR      87  41  19 VRB3      30.29F
DIXON          FAIR      90  34  13 N16G24    30.30S
RAWLINS        FAIR      87  38  17 NE14      30.31F
SARATOGA       FAIR      84  39  20 N9        30.33F
LARAMIE        FAIR      81  45  28 NE13      30.35F
CHEYENNE       PTSUNNY   81  52  36 NE10      30.27F
TORRINGTON     FAIR      91  52  26 NW8       30.10F
PINE BLUFFS    FAIR      86  48  26 W5        30.20F

$$


USA.gov is the U.S. government's official web portal to all federal, state and local government web resources and services.